This is the latest recevied weather packets stored in our database for station/object KO4ZGL-13. If no packets are shown the sender has not sent any weather packets the latest 10 day(s).
| Time | Temp. | Humidity | Pressure | Rain* | Wind** | Luminosity | Snow |
|---|---|---|---|---|---|---|---|
| 1777920690 | 26.11° C | 43% | 1017.4 hPa | 0 mm | - | 564 W/m² | - |
| 1777920386 | 26.67° C | 39% | 1017.6 hPa | 0 mm | - | 659 W/m² | - |
| 1777920081 | 26.67° C | 40% | 1017.5 hPa | 0 mm | - | 678 W/m² | - |
| 1777919779 | 26.67° C | 39% | 1017.8 hPa | 0 mm | - | 655 W/m² | - |
| 1777919477 | 26.67° C | 42% | 1017.7 hPa | 0 mm | - | 652 W/m² | - |
| 1777919174 | 26.67° C | 41% | 1017.8 hPa | 0 mm | - | 666 W/m² | - |
| 1777918871 | 26.67° C | 43% | 1017.8 hPa | 0 mm | - | 649 W/m² | - |
| 1777918569 | 26.11° C | 41% | 1017.7 hPa | 0 mm | - | 661 W/m² | - |
| 1777918266 | 26.67° C | 42% | 1017.8 hPa | 0 mm | - | 664 W/m² | - |
| 1777917965 | 25.56° C | 40% | 1017.6 hPa | 0 mm | - | 629 W/m² | - |
| 1777917664 | 26.11° C | 41% | 1017.9 hPa | 0 mm | - | 538 W/m² | - |
| 1777917361 | 26.67° C | 42% | 1017.8 hPa | 0 mm | - | 564 W/m² | - |
| 1777917057 | 26.67° C | 41% | 1017.8 hPa | 0 mm | - | 649 W/m² | - |
| 1777916755 | 27.22° C | 40% | 1018 hPa | 0 mm | - | 677 W/m² | - |
| 1777916451 | 26.67° C | 42% | 1018 hPa | 0 mm | - | 678 W/m² | - |
| 1777916148 | 26.11° C | 41% | 1018 hPa | 0 mm | - | 629 W/m² | - |
| 1777915846 | 25.56° C | 43% | 1018 hPa | 0 mm | - | 652 W/m² | - |
| 1777915542 | 25.56° C | 43% | 1018.2 hPa | 0 mm | - | 673 W/m² | - |
| 1777915238 | 25° C | 41% | 1018.2 hPa | 0 mm | - | 676 W/m² | - |
| 1777914935 | 25° C | 43% | 1018.2 hPa | 0 mm | - | 649 W/m² | - |
| 1777914632 | 25.56° C | 43% | 1018.2 hPa | 0 mm | - | 696 W/m² | - |
| 1777914328 | 25.56° C | 42% | 1018.4 hPa | 0 mm | - | 685 W/m² | - |
| 1777914026 | 25.56° C | 41% | 1018.5 hPa | 0 mm | - | 691 W/m² | - |
| 1777913722 | 25.56° C | 43% | 1018.4 hPa | 0 mm | - | 674 W/m² | - |
| 1777913419 | 25.56° C | 42% | 1018.4 hPa | 0 mm | - | 668 W/m² | - |
* Rain latest hour (hover to see other rain measurements)
** Current wind speed in m/s (hover to see current wind gust speed)